Home > Weather > Portimão > Past weeks

Flag for Portugal Past Weather in Portimão, Portugal — Yesterday and Last 2 Weeks

Now
73 °F

Passing clouds.


Feels Like: 76 °F
Forecast: 60 / 82 °F
Wind: 7 mph from Northwest

Location: Faro / Aeroporto

Current Time: Jun 25, 2016 at 1:07:36 AM

Latest Report: Jun 25, 2016 at 12:30 AM


Visibility: N/A

Pressure: 30.01 "Hg

Humidity: 61%

Dew Point: 59 °F

Location of PortimãoLocation

Past Weather in Portimão — Graph

°F

Portimão Temperature Yesterday

Maximum temperature yesterday: 88 °F (at 7:30 PM)
Minimum temperature yesterday: 68 °F (at 12:30 AM)
Average temperature yesterday: 75 °F

High & Low Weather Summary for the Past Weeks

 TemperatureHumidityPressure
High93 °F (Jun 13, 3:00 PM)94% (Jun 15, 6:30 AM)30.24 "Hg (Jun 15, 6:30 AM)
Low57 °F (Jun 16, 5:30 AM)19% (Jun 11, 1:30 PM)29.86 "Hg (Jun 15, 3:00 PM)
Average73 °F60%30.03 "Hg
* Reported Jun 10 12:00 AM — Jun 25 12:00 AM, Portimão, Weather by CustomWeather, © 2016

Note: Actual official high and low records may vary slightly from our data, if they occured in-between our weather recording intervals... More about our weather records

Advertising

Portimão Weather History for the Previous 24 Hours

Scroll right to see more
 ConditionsComfort  
Time TempWeatherWind HumidityBarometerVisibility
12:00 AM
Sat, Jun 25
73 °FClear.8 mph61%30.01 "Hg10 mi
11:30 PM
Fri, Jun 24
77 °FClear.8 mph54%30.01 "Hg10 mi
11:00 PM77 °FPassing clouds.8 mph54%30.01 "HgN/A
10:30 PM77 °FClear.9 mph51%30.01 "Hg10 mi
10:00 PM79 °FClear.10 mph45%29.98 "Hg10 mi
9:30 PM81 °FSunny.9 mph48%29.98 "Hg10 mi
9:00 PM82 °FSunny.12 mph45%29.98 "Hg10 mi
8:30 PM86 °FSunny.14 mph40%29.98 "Hg10 mi
8:00 PM86 °FSunny.13 mph38%29.98 "Hg10 mi
7:30 PM88 °FSunny.16 mph33%29.98 "Hg10 mi
7:00 PM82 °FSunny.12 mph51%29.98 "Hg10 mi
6:30 PM79 °FSunny.13 mph61%29.98 "Hg10 mi
6:00 PM75 °FSunny.14 mph69%29.98 "Hg10 mi
5:30 PM77 °FSunny.15 mph65%30.01 "Hg10 mi
5:00 PM81 °FSunny.16 mph54%30.01 "Hg10 mi
4:30 PM79 °FSunny.16 mph58%30.01 "Hg10 mi
4:00 PM77 °FSunny.13 mph65%30.01 "Hg10 mi
3:30 PM77 °FSunny.14 mph61%30.04 "Hg10 mi
3:00 PM77 °FSunny.14 mph61%30.04 "Hg10 mi
2:30 PM79 °FSunny.15 mph58%30.04 "Hg10 mi
2:00 PM79 °FSunny.13 mph61%30.04 "Hg10 mi
1:30 PM81 °FSunny.10 mph54%30.07 "Hg10 mi
1:00 PM79 °FSunny.10 mph61%30.07 "Hg10 mi
12:30 PM79 °FSunny.9 mph58%30.07 "Hg10 mi
12:00 PM77 °FSunny.9 mph61%30.07 "Hg10 mi
11:30 AM75 °FSunny.8 mph69%30.07 "Hg10 mi
11:00 AM75 °FSunny.7 mph69%30.07 "Hg10 mi
10:30 AM75 °FPassing clouds.6 mph69%30.07 "HgN/A
10:00 AM75 °FPassing clouds.6 mph65%30.07 "HgN/A
9:30 AM73 °FSunny.8 mph74%30.07 "Hg10 mi
9:00 AM77 °FSunny.2 mph61%30.07 "Hg10 mi
8:30 AM75 °FSunny.2 mph65%30.07 "Hg10 mi
8:00 AM72 °FSunny.6 mph73%30.07 "Hg10 mi
7:30 AM72 °FSunny.5 mph73%30.07 "Hg10 mi
7:00 AM70 °FClear.6 mph78%30.07 "Hg10 mi
6:30 AM68 °FClear.5 mph83%30.07 "Hg10 mi
6:00 AM68 °FClear.3 mph94%30.04 "Hg10 mi
5:30 AM68 °FClear.2 mph94%30.04 "Hg10 mi
5:00 AM68 °FClear.3 mph88%30.04 "Hg10 mi
4:30 AM68 °FPassing clouds.3 mph88%30.04 "HgN/A
4:00 AM68 °FClear.1 mph88%30.04 "Hg10 mi
3:30 AM68 °FClear.1 mph88%30.04 "Hg10 mi
3:00 AM68 °FClear.No wind88%30.04 "Hg10 mi
2:30 AM68 °FClear.No wind94%30.04 "Hg10 mi
2:00 AM68 °FClear.No wind94%30.07 "Hg10 mi
1:30 AM68 °FClear.2 mph88%30.07 "Hg10 mi
1:00 AM68 °FClear.5 mph88%30.07 "Hg10 mi
Weather by CustomWeather, © 2016

See weather overviewHow to use our weather pages